YARILO 1 (46490 NORAD) Tracking and Keplerian Element Data

This shows tracking and keplerian element data for the satellite.

Feedback or suggestion? Click here.




ElementValue
Catalog46490
NameYARILO 1
Epoch Orbit905
Epoch Day332.77627697
Epoch Year2020
RAAN265.7427
Inclination97.6745
Eccentricity0.0020036
Argument of Perigee39.549
Mean Anonmoly320.7194
Mean Motion15.0357067
Decay Rate1.56E-05
L11 46490U 20068E 20332.77627697 .00001560 00000-0 11825-3 0 9992
L22 46490 97.6745 265.7427 0020036 39.5490 320.7194 15.03570670 9051

Live tracking and technical data element details for YARILO 1 (NORAD 46490). YARILO 1 can be tracked NOW for your location showing map with azimuth and elevation plus other details from your city location.

Track the satellite on the map from your city or location and see movement details for azimuth, elevation, latitude, longitude, range, height, and movement on the map or in text.







IsCatalogInMostPopularTable: catalog: 46490, numindb: 18
Update: records affected: 1



GetName: 46490 YARILO 1

Hit Count: updated at: Sun, 29 Nov 2020 10:16:12 GMT